Regional Weather Roundup
Issued by NWS

Home | Current Version | Previous Version | Graphics & Text | Print | Product List | Glossary On
Versions: 1 2 3 4 5 6 7 8 9 10 11 12 13 14 15 16 17 18 19 20 21 22 23 24 25 26 27 28 29 30 31 32 33 34 35 36 37 38 39 40 41 42 43 44 45 46 47 48 49 50
000
ASUS45 KABQ 292201
RWRNM
NEW MEXICO REGIONAL WEATHER ROUNDUP
NATIONAL WEATHER SERVICE ALBUQUERQUE NM
400 PM MDT MON AUG 29 2016

NOTE: "FAIR" MEANS FEW OR NO CLOUDS BELOW 12,000 FEET AGL WITH NO
       SIGNIFICANT WEATHER OR OBSTRUCTIONS TO VISION.

      THIS PRODUCT IS RELEASED AS TWO VERSIONS.  ONE VERSION NEAR
      THE TOP OF THE HOUR CONTAINING PRELIMINARY DATA FROM ALBUQUERQUE
      AND OTHER STATIONS.  A FINAL VERSION WITH ADDITIONAL DATA IS
      ISSUED ABOUT 10 MINUTES AFTER THE HOUR.

NMZ501-503-504-510>518-292300-
NORTHWEST PLATEAU/NORTHCENTRAL MOUNTAINS

CITY           SKY/WX    TMP DP  RH WIND       PRES   REMARKS
FARMINGTON     FAIR      82  39  21 N8        30.21F
SANTA FE       FAIR      74  45  35 S13       30.29R
TAOS           CLOUDY    68  39  34 SE17      30.36R
ANGEL FIRE     RAIN      49  47  90 SE7       30.50R

$$
NMZ402-403-502-505>509-292300-
WESTCENTRAL MOUNTAINS/SOUTHWEST MOUNTAINS

CITY           SKY/WX    TMP DP  RH WIND       PRES   REMARKS
GALLUP         FAIR      75  37  25 CALM      30.28F
GRANTS         PTSUNNY   75  39  27 N5        30.30F
SILVER CITY    FAIR      81  45  27 NE6       30.19F

$$
NMZ407-409-411-412-292300-
SOUTHERN DESERTS

CITY           SKY/WX    TMP DP  RH WIND       PRES   REMARKS
DEMING         FAIR      86  53  32 NE10      30.10F
LAS CRUCES     FAIR      85  52  31 E14G21    30.12F
HOLLOMAN AFB   PTSUNNY   84  51  31 VRB2      30.10F
ALAMOGORDO     PTSUNNY   84  52  32 CALM      30.12F
T OR C         FAIR      85  38  18 CALM      30.13F

$$
NMZ519>523-292300-
CENTRAL VALLEYS/CENTRAL HIGHLANDS

CITY           SKY/WX    TMP DP  RH WIND       PRES   REMARKS
ALBUQUERQUE    FAIR      79  46  31 E14       30.21F
DOUBLE EAGLE   PTSUNNY   79  45  29 NE5       30.24F
MORIARTY ARPT  CLOUDY    62  48  60 NW9       30.33R
CLINES CORNERS NOT AVBL
BELEN          CLOUDY    81  41  24 CALM      30.19F
SOCORRO        FAIR      84  37  18 NW9       30.16F

$$
NMZ524>526-539-540-292300-
SOUTHCENTRAL MOUNTAINS

CITY           SKY/WX    TMP DP  RH WIND       PRES   REMARKS
RUIDOSO        NOT AVBL

$$
NMZ527>531-292300-
NORTHEAST HIGHLANDS/NORTHEAST PLAINS

CITY           SKY/WX    TMP DP  RH WIND       PRES   REMARKS
LAS VEGAS      PTSUNNY   67  50  54 E10       30.36S
RATON          PTSUNNY   71  45  39 S5        30.33S
CLAYTON        LGT RAIN  68  58  70 E8        30.30S

$$
NMZ532>537-292300-
EASTCENTRAL PLAINS

CITY           SKY/WX    TMP DP  RH WIND       PRES   REMARKS
TUCUMCARI      CLOUDY    77  57  50 E12       30.22S
CANNON AFB     CLOUDY    73  57  57 NE12      30.24S
CLOVIS AIRPORT CLOUDY    66  61  82 E12       30.25R

$$
NMZ028-029-538-292300-
SOUTHEAST PLAINS

CITY           SKY/WX    TMP DP  RH WIND       PRES   REMARKS
ROSWELL        PTSUNNY   81  59  47 E15       30.16S
ARTESIA        FAIR      81  61  50 N14       30.14S
CARLSBAD       PTSUNNY   82  58  43 NE7       30.10F
HOBBS          PTSUNNY   70  68  94 E20       30.19R


$$




USA.gov is the U.S. government's official web portal to all federal, state and local government web resources and services.